DIAMANT R/B, 2017

Orbit data source: Space-Track

DIAMANT R/B, 2017 is space debris in LEO originally from a launch on Thu, 17 Feb 1966 UTC launched from the Hamma Guira Space Track Range (HGSTR). Debris objects in space refer to the collection of defunct objects orbiting the Earth. Examples of debris include non-operational satellites, rocket bodies, and fragments generated from explosions, collisions, or faulty payload assembly.

Loading next visibility...
Identifier
2017, 1966-013B
Orbit
LEO
Country
Flag of FRFR
Related business
Manufacturer
Sud
Mission
Spacecraft
Bus & Motor
RUBIS, Unknown motor
Mass
65 kg wet, 65 kg dry
Launch date (UTC)
1966-02-17 (60 years ago)
Launch vehicle
Unknown
Launch site
Hamma Guira Space Track Range (HGSTR)
Object type
Payload
Rocket body
Debris
Shape & HBR
Unknown
Radar Cross Section
Medium (>0.1 m² and <1 m²)

Expand to show TLE details & history
Last TLE update: 18 hours ago

TLE from 18 hours ago
0 DIAMANT R/B
1 02017U 66013B   25347.02998463  .00004443  00000-0  11699-2 0  9991
2 02017  34.0597 197.2335 1037491  73.6259 297.5767 12.92695268745668
Epoch: 2025-12-13T00:43Z
TLE epoch observation values (Epoch: 2025-12-13T00:43:10.672Z)
Latitude
-0.00002°
Longitude
104.4759°
Altitude
990.871 km
Speed
7.5 km/s
True Right ascension
13h 08m 56s
True Declination
0° 00' 00"
Sunlit
Object was in daylight at epoch
Visualization orbit readout
Latitude
Unknown
Longitude
Unknown
Altitude
Unknown
Speed
Unknown
Apparent Right ascension
Unknown
Apparent Declination
Unknown
Sunlit
N/A
Visualization observer readout
Local Sidereal Time
16:58:03
Azimuth
Unknown
Elevation
Unknown
Doppler factor
Unknown
Orbital elements
Apogee altitude
2,089.913 km
Perigee altitude
497.97 km
Semi-major axis
7,672.079 km
Eccentricity
0.10375
Inclination
34.0597°
RAAN
197.2335°
Arg. of periapsis
73.6259°
True anomaly
286.43843°
Mean anomaly
297.5767°
Eccentric anomaly
292.0678°
Mean motion
3.22978 °/min
Orbital period
111.46 mins
BSTAR
0.0011699
Loading maneuver chart data...
Computing Atmospheric mass density...

Documentation

Showing up to 5 results
|